Date,TemperatureHighF,TemperatureAvgF,TemperatureLowF,DewpointHighF,DewpointAvgF,DewpointLowF,HumidityHigh,HumidityAvg,HumidityLow,PressureMaxIn,PressureMinIn,WindSpeedMaxMPH,WindSpeedAvgMPH,GustSpeedMaxMPH,PrecipitationSumIn
2013-4-5,64.1,40.5,35.0,45.0,29.0,-99.9,83,71,51,29.98,29.82,5,1,6,0.15
2013-4-6,40.1,36.2,34.2,33.0,31.0,30.0,87,81,73,30.27,29.99,5,2,8,0.00
2013-4-7,40.6,35.9,28.1,32.0,29.7,25.0,88,78,61,30.30,30.20,3,1,7,0.00
2013-4-8,52.7,37.7,21.1,31.0,25.0,19.0,96,65,34,30.19,29.87,6,1,9,0.00
2013-4-9,53.5,43.7,35.1,41.0,34.8,29.0,94,72,52,29.87,29.79,4,0,7,0.06
2013-4-10,54.1,45.5,38.3,44.0,40.2,37.0,95,82,61,29.98,29.80,5,1,14,0.02
2013-4-11,60.9,50.3,41.3,47.0,42.2,37.0,86,75,55,29.99,29.59,12,2,13,0.00
2013-4-12,58.9,51.7,45.2,50.0,45.3,39.0,95,80,60,29.77,29.51,9,2,21,0.20
2013-4-13,60.5,50.9,43.5,44.0,39.9,36.0,82,67,41,30.22,29.77,9,2,14,0.00
2013-4-14,63.7,51.1,35.9,43.0,39.6,34.0,94,67,42,30.34,30.22,3,0,6,0.00
2013-4-15,72.3,55.5,38.6,45.0,40.2,36.0,95,61,33,30.28,30.11,4,0,9,0.00
2013-4-16,73.3,59.4,48.2,50.0,42.7,36.0,78,55,35,30.13,30.06,4,0,7,0.00
2013-4-17,74.2,60.9,50.1,54.0,49.7,47.0,93,69,44,30.18,30.10,2,0,4,0.00
2013-4-18,81.0,63.3,45.2,53.0,49.7,44.0,97,65,36,30.10,29.90,5,1,8,0.00
2013-4-19,63.2,56.1,48.5,55.0,45.6,38.0,94,70,46,30.19,29.96,1,0,4,0.14
2013-4-20,51.4,47.3,43.2,46.0,43.0,40.0,94,85,71,30.28,30.19,7,0,11,0.11
2013-4-21,69.5,53.6,39.8,52.0,45.1,38.0,94,75,49,30.23,29.91,8,1,12,0.00
2013-4-22,70.9,55.9,41.0,56.0,48.5,40.0,97,78,51,29.98,29.89,2,0,7,0.03
2013-4-23,69.5,57.4,47.6,51.0,46.0,42.0,95,69,42,30.18,29.99,8,1,12,0.00
2013-4-24,74.1,58.9,43.1,46.0,43.4,40.0,89,60,34,30.29,30.18,2,0,8,0.00
2013-4-25,79.3,62.7,47.6,51.0,47.3,44.0,88,61,34,30.25,30.07,3,0,6,0.00
2013-4-26,81.5,65.6,47.4,55.0,48.4,45.0,90,58,29,30.07,29.52,6,1,8,0.00
2013-4-27,68.0,58.2,47.8,57.0,51.8,47.0,96,80,66,29.67,29.52,4,0,7,0.33
2013-4-28,54.8,46.9,42.9,46.0,43.2,40.0,96,87,70,30.00,29.64,2,0,3,0.14
2013-4-29,57.3,51.6,46.1,50.0,47.2,43.0,93,85,73,30.12,29.95,4,0,7,0.00
2013-4-30,64.7,54.4,45.7,54.0,48.6,44.0,96,81,63,30.13,30.00,4,0,9,0.02
2013-5-1,58.8,51.2,47.1,52.0,47.8,45.0,96,88,77,30.20,30.06,4,1,9,0.02
2013-5-2,62.3,53.8,46.8,57.0,51.4,46.0,98,92,82,30.11,29.96,1,0,5,0.27
2013-5-3,53.2,51.2,46.1,51.0,49.4,45.0,97,94,86,29.97,29.90,0,0,2,0.20
2013-5-4,67.1,53.1,45.1,55.0,49.2,44.0,97,87,62,30.08,29.97,3,0,9,0.65
2013-5-5,66.6,54.6,47.4,59.0,52.2,47.0,99,91,74,30.21,30.08,2,0,4,0.15
2013-5-6,66.2,56.3,45.1,60.0,54.0,44.0,99,92,80,30.17,29.98,5,0,11,0.02
2013-5-7,72.8,63.0,54.5,63.0,57.9,54.0,99,84,63,29.98,29.88,4,0,10,0.02
2013-5-8,76.9,63.4,52.7,63.0,57.0,52.0,99,82,52,29.95,29.86,2,0,8,0.00
2013-5-9,77.0,64.2,51.2,65.0,56.9,50.0,98,79,53,29.93,29.84,2,0,6,0.07
2013-5-10,59.3,56.6,52.3,59.0,55.6,52.0,98,96,92,29.96,29.79,2,0,5,0.91
2013-5-11,56.1,53.1,49.6,54.0,51.0,49.0,99,92,81,29.97,29.90,1,0,3,0.06
2013-5-12,69.7,54.8,45.9,53.0,47.1,41.0,97,77,45,30.00,29.82,7,0,7,0.01
2013-5-13,60.4,49.7,41.6,47.0,42.6,39.0,91,78,53,30.03,29.95,9,1,14,0.00
2013-5-14,68.1,57.0,49.3,50.0,47.0,45.0,90,72,45,29.95,29.78,4,0,8,0.00
2013-5-15,75.8,60.4,43.3,59.0,50.0,42.0,97,72,45,29.78,29.56,7,1,13,0.00
2013-5-16,75.6,64.8,49.8,55.0,52.0,48.0,95,66,44,29.56,29.42,5,1,12,0.02
2013-5-17,75.9,64.1,54.5,59.0,54.8,51.0,92,73,52,29.50,29.43,5,1,12,0.00
2013-5-18,69.6,59.1,51.4,56.0,52.3,49.0,96,80,50,29.81,29.50,8,1,12,0.34
2013-5-19,77.8,61.8,45.1,62.0,53.8,44.0,98,78,49,29.79,29.57,8,1,14,0.14
2013-5-20,70.6,57.9,48.1,51.0,46.8,43.0,93,69,42,29.85,29.73,5,1,13,0.01
2013-5-21,68.4,56.5,44.9,51.0,45.9,42.0,95,70,44,29.88,29.75,8,0,9,0.02
2013-5-22,63.0,52.0,43.6,51.0,46.7,41.0,94,82,59,29.80,29.62,7,1,12,0.23
2013-5-23,56.7,48.1,40.0,43.0,40.5,38.0,93,76,56,29.81,29.68,3,0,6,0.00
2013-5-24,56.0,46.5,35.5,45.0,41.3,34.0,97,83,62,29.82,29.70,3,0,5,0.01
2013-5-25,53.7,46.8,41.9,49.0,44.0,40.0,95,90,75,29.82,29.76,4,0,8,0.25
2013-5-26,47.8,44.6,41.5,44.0,42.2,40.0,96,91,81,29.76,29.65,8,2,16,0.26
2013-5-27,57.5,48.9,42.7,50.0,46.3,42.0,97,91,76,29.78,29.61,9,2,11,0.38
2013-5-28,69.1,54.7,42.4,53.0,48.0,41.0,97,80,45,29.77,29.51,5,0,10,0.00
2013-5-29,65.8,55.5,44.7,58.0,51.5,43.0,98,86,72,29.62,29.47,5,0,7,0.00
2013-5-30,51.8,50.0,48.5,51.0,49.0,48.0,98,96,89,29.63,29.41,3,0,8,1.09
2013-5-31,60.9,53.0,43.8,56.0,50.6,43.0,99,92,67,29.63,29.38,6,0,10,0.28
2013-6-1,57.3,50.1,43.3,57.0,49.5,42.0,99,97,93,29.71,29.62,4,0,9,0.82
2013-6-2,57.4,51.5,48.5,57.0,50.9,48.0,99,98,95,30.01,29.64,3,0,8,1.27
2013-6-3,49.3,47.9,46.3,49.0,47.4,46.0,99,98,97,30.10,30.01,2,0,6,0.57
2013-6-4,60.2,53.9,48.6,53.0,51.0,48.0,98,90,75,30.08,30.01,2,0,5,0.04
2013-6-5,67.6,56.8,45.7,54.0,49.6,45.0,96,78,55,30.08,30.04,2,0,5,0.00
2013-6-6,69.0,59.1,51.4,59.0,54.3,50.0,96,84,65,30.13,30.08,1,0,5,0.00
2013-6-7,74.2,61.4,48.3,62.0,56.3,48.0,99,85,62,30.11,30.02,4,0,5,0.00
2013-6-8,78.5,66.0,53.1,64.0,59.2,52.0,98,80,53,30.04,29.85,1,0,5,0.00
2013-6-9,79.2,64.2,54.3,67.0,59.1,53.0,98,85,52,29.85,29.65,6,0,6,0.07
2013-6-10,61.8,58.7,56.0,60.0,57.2,53.0,98,95,87,29.82,29.65,1,0,2,0.34
2013-6-11,71.1,61.2,51.4,54.0,50.0,45.0,96,70,40,30.03,29.82,2,0,6,0.00
2013-6-12,75.7,63.0,47.8,55.0,49.2,44.0,96,64,34,30.11,30.03,2,0,3,0.00
2013-6-13,82.1,68.1,52.6,59.0,53.4,46.0,88,62,39,30.10,29.87,3,0,6,0.00
2013-6-14,72.1,63.1,55.0,58.0,53.6,49.0,94,72,49,30.09,29.87,3,0,6,0.07
2013-6-15,79.7,64.4,49.1,61.0,55.3,48.0,97,74,45,30.03,29.89,7,0,8,0.00
2013-6-16,81.4,69.1,57.7,58.0,55.1,52.0,89,64,38,30.01,29.92,3,0,6,0.00
2013-6-17,87.0,71.4,56.2,72.0,62.4,54.0,93,75,54,30.00,29.90,5,0,7,0.00
2013-6-18,93.7,78.6,62.9,77.0,68.8,61.0,97,74,47,29.96,29.89,1,0,5,0.00
2013-6-19,93.8,78.8,64.4,79.0,69.3,63.0,98,75,45,29.97,29.85,3,0,7,0.00
2013-6-20,95.2,80.1,65.8,77.0,70.1,61.0,97,74,44,29.85,29.68,4,0,8,0.00
2013-6-21,80.7,71.3,62.7,63.0,60.6,58.0,95,71,48,29.97,29.77,4,1,13,0.11
2013-6-22,81.5,71.3,62.9,63.0,60.0,55.0,90,69,44,29.98,29.88,2,0,5,0.02
2013-6-23,77.9,69.2,60.8,62.0,58.0,52.0,92,69,49,29.92,29.84,4,1,14,0.00
2013-6-24,64.8,57.3,54.1,57.0,52.9,47.0,97,86,59,30.03,29.92,3,0,7,0.45
2013-6-25,54.8,53.4,50.3,54.0,52.4,49.0,98,96,91,30.13,29.97,3,0,8,1.08
2013-6-26,55.1,51.5,48.9,51.0,48.2,45.0,97,88,73,30.25,30.11,3,0,7,0.09
2013-6-27,64.1,55.2,47.8,50.0,47.0,43.0,91,75,51,30.25,30.15,2,0,5,0.00
2013-6-28,68.7,57.8,43.1,53.0,47.1,42.0,97,71,41,30.16,30.05,3,0,7,0.00
2013-6-29,68.8,59.0,47.9,54.0,50.5,46.0,93,75,53,30.07,29.96,4,1,9,0.00
2013-6-30,68.4,57.8,50.9,55.0,46.6,40.0,94,68,45,30.16,30.04,3,0,7,0.04
2013-7-1,78.0,64.4,53.0,56.0,50.2,47.0,82,62,37,30.11,29.98,5,1,8,0.00
2013-7-2,83.4,68.7,54.3,61.0,54.7,50.0,87,63,38,30.00,29.89,4,0,7,0.00
2013-7-3,79.9,66.0,57.1,68.0,60.0,55.0,94,82,56,29.93,29.82,4,0,8,0.02
2013-7-4,78.0,68.3,59.5,64.0,61.1,58.0,98,79,54,30.17,29.93,5,0,6,0.06
2013-7-5,77.7,66.6,58.6,65.0,60.8,57.0,97,82,61,30.31,30.17,1,0,3,0.00
2013-7-6,74.7,66.4,57.2,65.0,60.8,56.0,98,83,65,30.33,30.27,2,0,4,0.00
2013-7-7,79.4,68.2,54.2,62.0,57.2,53.0,98,70,42,30.35,30.29,2,0,7,0.00
2013-7-8,79.7,67.2,52.9,60.0,56.6,51.0,97,71,44,30.35,30.27,3,0,6,0.00
2013-7-9,82.2,69.8,53.7,63.0,58.1,52.0,97,69,45,30.29,30.05,3,0,8,0.00
2013-7-10,82.8,69.6,56.8,61.0,57.2,54.0,95,68,40,30.05,29.87,1,0,5,0.00
2013-7-11,66.0,60.8,55.9,55.0,51.5,50.0,82,72,58,30.04,29.93,1,0,5,0.00
2013-7-12,73.3,62.9,54.4,56.0,52.4,50.0,91,70,49,30.08,30.02,3,0,6,0.00
2013-7-13,76.2,64.9,51.7,56.0,52.2,50.0,94,66,44,30.09,30.04,2,0,5,0.00
2013-7-14,77.6,65.4,52.9,57.0,54.3,50.0,91,69,42,30.10,30.03,3,0,5,0.01
2013-7-15,73.2,64.2,55.0,58.0,53.2,48.0,91,69,44,30.17,30.05,1,0,4,0.01
2013-7-16,78.4,66.1,50.9,56.0,52.6,48.0,93,65,39,30.21,30.12,3,0,6,0.00
2013-7-17,83.3,68.1,52.7,60.0,55.2,51.0,95,67,37,30.16,30.10,2,0,7,0.01
2013-7-18,84.8,69.6,53.4,61.0,56.5,51.0,96,67,36,30.16,30.07,3,0,5,0.01
2013-7-19,84.8,71.0,56.9,63.0,57.2,54.0,96,65,36,30.11,29.98,1,0,4,0.01
2013-7-20,79.9,67.7,57.8,61.0,56.2,53.0,93,69,42,30.09,30.02,1,0,4,0.01
2013-7-21,83.5,69.1,52.2,61.0,54.3,50.0,97,64,36,30.15,30.07,5,0,5,0.01
2013-7-22,88.1,70.9,53.5,59.0,53.4,47.0,94,60,26,30.09,29.92,3,0,5,0.01
2013-7-23,88.1,71.9,54.9,63.0,53.9,47.0,91,58,26,29.93,29.86,2,0,7,0.02
2013-7-24,89.3,72.4,53.3,61.0,54.5,50.0,94,59,27,29.94,29.85,2,0,5,0.00
2013-7-25,83.4,71.7,64.1,67.0,63.8,61.0,97,78,51,29.97,29.93,2,0,6,0.09
2013-7-26,90.6,74.7,60.7,67.0,62.2,59.0,97,69,39,29.97,29.87,5,0,5,0.01
2013-7-27,97.3,80.7,63.2,67.0,62.1,59.0,94,58,30,29.89,29.74,2,0,7,0.01
2013-7-28,99.3,83.5,66.2,67.0,63.5,60.0,90,54,29,29.84,29.73,2,0,5,0.00
2013-7-29,87.8,76.5,63.8,69.0,65.5,62.0,98,71,46,29.88,29.68,6,0,11,1.21
2013-7-30,78.0,68.1,60.2,64.0,59.6,55.0,98,76,47,30.04,29.84,6,1,9,0.13
2013-7-31,79.4,69.5,60.9,63.0,59.4,57.0,91,71,49,30.08,30.00,8,1,11,0.00
2013-8-1,86.1,71.0,56.7,63.0,59.6,55.0,98,71,40,30.09,29.98,2,0,5,0.00
2013-8-2,93.6,76.6,57.7,68.0,61.1,56.0,98,64,31,30.01,29.89,2,0,4,0.00
2013-8-3,97.0,79.3,62.0,67.0,62.4,56.0,93,61,25,29.99,29.89,3,0,4,0.00
2013-8-4,86.9,71.9,61.1,69.0,65.0,60.0,97,81,53,30.14,29.98,5,0,18,1.10
2013-8-5,84.4,68.7,57.8,71.0,63.5,57.0,99,85,60,30.11,29.96,2,0,5,0.00
2013-8-6,91.8,76.3,61.1,75.0,65.6,60.0,98,72,39,29.97,29.81,5,0,15,0.13
2013-8-7,87.1,73.7,62.3,72.0,65.9,59.0,97,78,54,29.97,29.77,4,1,8,0.15
2013-8-8,83.9,75.0,64.6,72.0,65.6,60.0,90,73,58,29.96,29.73,3,0,7,0.01
2013-8-9,71.7,64.2,56.5,66.0,60.1,56.0,97,87,70,30.07,29.97,1,0,5,0.28
2013-8-10,76.6,63.7,53.9,65.0,57.9,53.0,99,83,51,30.09,29.99,4,0,7,0.10
2013-8-11,76.6,62.8,53.2,61.0,55.2,51.0,98,78,49,30.04,29.98,3,0,6,0.02
2013-8-12,79.0,65.0,50.1,57.0,53.5,49.0,98,69,42,30.05,29.86,3,0,7,0.00
2013-8-13,73.9,63.2,56.2,58.0,52.6,45.0,94,71,39,30.07,29.85,4,0,9,0.00
2013-8-14,71.9,60.1,50.4,52.0,48.5,44.0,93,68,41,30.20,30.07,1,0,6,0.01
2013-8-15,74.3,60.0,46.4,52.0,46.0,42.0,95,64,33,30.24,30.15,1,0,4,0.00
2013-8-16,79.3,65.1,48.8,54.0,48.4,44.0,93,59,33,30.17,30.03,2,0,6,0.00
2013-8-17,85.0,67.5,49.2,56.0,51.7,47.0,95,61,31,30.04,29.93,3,0,5,0.00
2013-8-18,88.6,73.5,57.7,64.0,57.9,52.0,90,60,36,29.96,29.87,5,0,7,0.00
2013-8-19,74.8,64.5,59.8,65.0,60.7,58.0,97,87,70,30.04,29.91,1,0,12,0.20
2013-8-20,66.4,58.7,52.1,59.0,55.2,51.0,97,88,65,30.32,30.05,3,0,5,0.02
2013-8-21,71.3,58.7,46.5,56.0,50.6,46.0,99,77,47,30.32,30.19,2,0,5,0.01
2013-8-22,73.8,58.7,46.2,57.0,51.4,45.0,98,79,50,30.19,30.08,1,0,4,0.00
2013-8-23,74.2,61.0,47.3,59.0,52.3,46.0,98,76,48,30.09,30.01,4,1,8,0.00
2013-8-24,76.2,63.4,50.5,59.0,54.6,49.0,98,75,49,30.04,29.85,3,0,8,0.01
2013-8-25,63.7,58.8,56.9,58.0,55.8,53.0,97,90,73,29.88,29.81,4,1,8,0.39
2013-8-26,61.4,58.2,56.4,59.0,56.5,54.0,99,94,80,29.98,29.86,5,0,8,0.54
2013-8-27,63.1,57.7,55.2,58.0,54.9,53.0,97,90,75,29.97,29.92,2,0,5,0.06
2013-8-28,67.5,59.1,54.6,60.0,56.7,54.0,99,92,72,30.07,29.91,1,0,3,0.18
2013-8-29,73.5,59.6,49.1,58.0,53.1,49.0,99,81,49,30.15,30.07,5,0,6,0.00
2013-8-30,77.0,62.0,49.7,58.0,53.0,49.0,98,75,43,30.14,30.04,1,0,5,0.00
2013-8-31,77.5,65.5,55.1,59.0,55.3,52.0,89,72,46,30.06,29.99,4,0,7,0.00
2013-9-1,65.1,58.3,49.7,58.0,49.2,41.0,96,74,45,30.20,30.05,2,0,7,0.27
2013-9-2,64.7,56.4,49.3,54.0,49.4,45.0,89,78,60,30.20,30.09,5,1,13,0.01
2013-9-3,66.5,63.3,59.9,59.0,57.5,54.0,88,81,76,30.27,30.09,4,0,7,0.01
2013-9-4,74.8,64.6,56.3,65.0,60.0,55.0,97,85,64,30.27,30.14,2,0,4,0.03
2013-9-5,77.1,62.6,51.6,64.0,57.0,51.0,98,83,58,30.15,29.99,1,0,4,0.00
2013-9-6,78.5,49.0,54.1,58.0,17.5,-99.9,96,57,44,29.99,29.90,3,-241,6,0.00
2013-9-7,80.7,48.1,50.4,63.0,6.9,-99.9,97,43,41,30.06,29.97,5,-312,7,0.00
2013-9-8,80.0,66.7,51.1,62.0,55.5,47.0,86,68,47,30.06,29.94,3,0,8,0.00
2013-9-9,69.6,60.7,48.8,60.0,54.1,47.0,97,80,52,30.05,29.81,8,1,13,0.57
2013-9-10,64.3,54.2,46.2,55.0,50.0,44.0,96,86,60,30.05,29.89,5,0,9,0.20
2013-9-11,62.7,54.7,49.6,51.0,48.7,47.0,95,81,60,29.97,29.88,4,1,11,0.00
2013-9-12,60.5,53.9,50.7,52.0,49.7,48.0,96,86,70,29.97,29.85,3,0,7,0.06
2013-9-13,63.7,54.9,50.1,56.0,51.4,49.0,97,88,67,30.04,29.97,2,0,5,0.14
2013-9-14,73.2,60.5,53.1,57.0,53.0,50.0,91,78,45,30.01,29.87,5,0,11,0.00
2013-9-15,69.0,61.3,56.2,61.0,57.4,54.0,97,87,72,29.89,29.70,4,0,7,0.11
2013-9-16,58.8,56.3,53.9,57.0,54.4,53.0,97,93,81,29.69,29.49,7,1,9,0.14
2013-9-17,58.4,49.6,43.6,53.0,45.7,40.0,97,87,53,29.67,29.47,5,1,11,0.06
2013-9-18,57.3,49.5,42.5,56.0,47.6,40.0,97,93,88,29.65,29.42,2,0,8,0.21
2013-9-19,58.2,50.0,44.5,52.0,47.1,44.0,97,89,70,29.93,29.59,3,0,8,0.07
2013-9-20,59.8,51.9,45.9,54.0,49.3,44.0,95,90,79,30.04,29.90,3,0,7,0.06
2013-9-21,58.9,54.2,48.8,54.0,51.1,48.0,96,89,77,30.32,30.04,6,0,7,0.02
2013-9-22,62.0,53.7,45.9,54.0,49.9,45.0,98,87,67,30.32,30.20,3,0,8,0.00
2013-9-23,63.9,58.3,54.3,56.0,52.8,51.0,91,82,72,30.20,30.04,6,0,8,0.00
2013-9-24,65.9,57.3,50.9,55.0,52.5,49.0,96,84,67,30.04,29.90,4,0,9,0.00
2013-9-25,63.0,55.6,50.0,57.0,52.6,49.0,96,90,80,29.93,29.78,3,0,8,0.00
2013-9-26,65.2,54.8,46.7,58.0,51.7,44.0,98,90,65,30.03,29.74,6,0,10,0.02
2013-9-27,59.0,46.1,35.9,50.0,41.7,35.0,98,85,61,30.08,30.01,3,0,7,0.00
2013-9-28,60.8,45.2,33.2,48.0,40.1,32.0,98,84,55,30.04,29.95,2,0,5,0.00
2013-9-29,59.9,47.6,36.4,45.0,40.9,35.0,97,79,54,30.00,29.91,10,2,12,0.00
2013-9-30,59.7,46.6,37.1,43.0,39.4,36.0,96,78,49,29.93,29.84,10,2,13,0.00
2013-10-1,57.6,41.8,30.3,42.0,35.4,29.0,97,80,51,30.08,29.90,8,1,11,0.00
2013-10-2,55.1,40.1,29.2,42.0,33.0,28.0,97,78,45,30.35,30.08,4,0,9,0.00
2013-10-3,54.8,41.5,30.8,36.0,32.6,29.0,96,73,46,30.39,30.32,6,1,10,0.00
2013-10-4,58.3,41.9,29.7,36.0,31.8,28.0,92,71,39,30.36,30.23,5,1,7,0.01
2013-10-5,58.8,43.8,30.6,42.0,36.1,29.0,95,76,49,30.21,30.05,5,0,8,0.00
2013-10-6,60.2,47.2,39.3,47.0,41.8,38.0,96,82,58,30.30,30.10,0,0,3,0.00
2013-10-7,56.4,47.1,40.2,49.0,44.1,39.0,96,89,75,30.36,30.30,0,0,1,0.00
2013-10-8,64.5,47.4,37.5,51.0,43.8,37.0,98,88,57,30.31,30.19,2,0,4,0.01
2013-10-9,56.1,48.7,41.0,51.0,46.3,40.0,98,91,81,30.20,29.89,2,0,5,0.00
2013-10-10,63.1,54.0,46.8,53.0,48.9,46.0,96,84,65,29.89,29.63,4,0,9,0.61
2013-10-11,55.6,46.9,41.2,55.0,46.1,40.0,98,97,94,30.09,29.77,4,0,9,0.28
2013-10-12,55.5,46.8,39.2,54.0,45.9,39.0,98,97,94,30.11,29.97,3,0,8,0.05
2013-10-13,58.6,47.5,39.1,48.0,43.9,38.0,98,88,61,30.16,30.02,5,0,7,0.00
2013-10-14,59.0,44.4,32.6,52.0,42.2,32.0,97,92,74,30.17,30.05,2,0,5,0.01
2013-10-15,57.3,48.1,38.4,51.0,45.3,37.0,97,90,75,30.05,29.73,4,0,8,0.03
2013-10-16,53.2,46.9,41.3,49.0,44.1,40.0,96,90,74,29.99,29.71,7,0,9,0.02
2013-10-17,58.5,47.7,38.3,51.0,44.2,37.0,97,88,76,29.98,29.86,8,2,15,0.06
2013-10-18,54.1,49.4,39.7,49.0,44.5,38.0,94,83,72,30.14,29.85,8,1,11,0.06
2013-10-19,60.7,44.9,33.2,47.0,40.7,32.0,97,86,59,30.14,30.01,3,0,8,0.00
2013-10-20,65.2,53.4,42.9,57.0,50.0,42.0,96,89,66,30.05,29.98,3,0,6,0.29
2013-10-21,66.5,57.7,50.9,58.0,54.1,50.0,96,88,70,30.04,30.00,7,1,10,0.01
2013-10-22,71.6,56.2,46.4,61.0,52.1,45.0,97,87,64,30.04,29.90,2,0,6,0.00
2013-10-23,65.2,55.3,45.3,59.0,52.5,44.0,97,90,76,29.95,29.83,2,0,5,0.01
2013-10-24,66.7,56.3,47.7,56.0,52.3,46.0,95,87,61,30.12,29.95,6,1,9,0.02
2013-10-25,59.7,49.9,41.8,56.0,48.1,41.0,97,93,83,30.11,30.04,3,0,5,0.00
2013-10-26,68.9,56.4,48.2,60.0,52.9,47.0,96,88,71,30.04,29.96,5,0,8,0.00
2013-10-27,67.6,58.4,51.5,56.0,51.0,46.0,94,77,56,29.96,29.74,18,2,19,0.00
2013-10-28,72.1,60.8,53.2,54.0,49.7,47.0,79,68,43,29.87,29.62,7,2,12,0.00
2013-10-29,60.5,53.9,48.4,49.0,45.8,44.0,86,75,63,30.05,29.79,10,2,13,0.02
2013-10-30,56.8,47.8,35.2,45.0,40.7,33.0,91,77,53,30.34,30.05,8,1,12,0.00
2013-10-31,55.0,39.9,30.1,43.0,35.4,29.0,95,85,49,30.36,30.19,2,0,4,0.00
2013-11-1,51.6,43.0,34.9,45.0,39.9,33.0,95,89,76,30.19,29.96,3,0,6,0.01
2013-11-2,56.6,49.3,41.4,53.0,46.6,40.0,95,90,83,29.96,29.68,9,1,11,0.02
2013-11-3,55.2,49.9,43.6,51.0,45.7,38.0,93,85,76,29.77,29.56,8,2,15,0.10
2013-11-4,54.5,48.0,40.5,44.0,39.8,36.0,85,74,55,29.75,29.29,4,1,12,0.00
2013-11-5,51.0,43.6,37.5,45.0,38.2,33.0,92,81,72,29.53,29.30,5,1,9,0.02
2013-11-6,49.4,44.5,37.8,44.0,39.8,33.0,94,84,67,29.73,29.39,6,1,14,0.13
2013-11-7,62.1,54.4,45.6,53.0,49.9,44.0,95,85,71,29.85,29.69,10,3,17,0.05
2013-11-8,64.3,55.9,51.2,53.0,49.8,47.0,92,81,66,29.84,29.72,6,1,14,0.00
2013-11-9,54.9,49.0,42.0,51.0,44.8,38.0,93,85,77,29.89,29.71,9,1,12,0.10
2013-11-10,49.6,42.4,36.4,45.0,39.2,34.0,95,88,72,29.99,29.61,8,1,12,0.28
2013-11-11,45.3,41.5,38.3,41.0,37.7,35.0,94,86,77,30.47,30.00,3,1,8,0.01
2013-11-12,45.5,37.5,28.6,37.0,33.1,27.0,95,84,67,30.46,30.24,2,0,4,0.00
2013-11-13,42.4,36.2,31.1,39.0,34.3,30.0,95,92,88,30.42,30.25,1,0,3,0.00
2013-11-14,37.9,33.7,29.9,35.0,32.4,29.0,96,94,88,30.38,30.12,3,0,4,0.00
2013-11-15,39.3,37.2,35.1,38.0,35.8,34.0,95,94,92,30.40,30.15,5,0,6,0.04
2013-11-16,49.2,40.2,32.4,43.0,37.9,31.0,95,92,78,30.43,30.32,0,0,3,0.00
2013-11-17,37.9,34.5,30.0,37.0,33.6,29.0,97,96,95,30.32,30.12,2,0,4,0.01
2013-11-18,42.8,40.3,36.7,41.0,39.1,36.0,97,95,91,30.12,29.84,2,0,5,0.00
2013-11-19,46.5,44.0,41.8,44.0,41.5,39.0,93,91,88,29.84,29.58,3,0,6,0.00
2013-11-20,44.3,41.5,38.5,42.0,39.5,36.0,96,92,89,29.62,29.49,5,1,13,0.08
2013-11-21,41.8,39.7,37.7,41.0,37.5,34.0,95,92,86,29.61,29.50,4,0,5,0.00
2013-11-22,46.5,43.1,40.6,43.0,40.8,39.0,96,92,80,29.81,29.55,2,0,5,0.00
2013-11-23,45.3,41.6,38.8,42.0,39.8,38.0,96,93,87,29.91,29.81,3,0,6,0.01
2013-11-24,43.5,39.8,32.8,42.0,36.6,27.0,94,88,78,30.09,29.89,6,2,14,0.01
2013-11-25,35.6,32.6,30.7,29.0,26.7,25.0,84,79,73,30.30,30.09,8,1,13,0.00
2013-11-26,35.4,32.0,29.5,29.0,27.5,26.0,89,83,71,30.47,30.29,5,1,9,0.00
2013-11-27,35.5,28.1,22.1,27.0,23.5,20.0,93,83,66,30.52,30.44,4,0,7,0.00
2013-11-28,35.3,33.5,30.0,33.0,29.2,24.0,93,84,75,30.44,30.27,10,3,13,0.01
2013-11-29,39.9,36.9,34.5,35.0,33.7,33.0,94,88,81,30.29,29.81,11,2,13,0.05
2013-11-30,40.4,38.1,36.1,36.0,35.1,34.0,93,88,83,30.24,29.80,8,2,15,0.04
2013-12-1,41.4,38.5,36.5,36.0,34.9,33.0,92,86,76,30.35,30.25,6,1,9,0.01
2013-12-2,44.2,35.8,27.5,37.0,33.3,26.0,95,90,74,30.59,30.34,1,0,3,0.01
2013-12-3,38.1,28.6,24.1,33.0,26.6,23.0,95,92,78,30.57,30.37,0,0,2,0.00
2013-12-4,36.2,29.0,20.8,32.0,26.9,19.0,95,92,86,30.36,30.21,9,1,16,0.00
2013-12-5,41.0,37.3,34.0,37.0,32.9,31.0,92,84,74,30.30,29.60,15,4,24,0.06
2013-12-6,37.9,34.4,30.8,36.0,27.4,24.0,94,76,62,29.93,29.65,8,3,24,0.07
2013-12-7,37.0,33.7,30.1,33.0,28.0,24.0,94,80,68,30.19,29.93,9,2,16,0.03
2013-12-8,41.6,38.9,35.2,38.0,35.5,32.0,91,88,82,30.27,30.17,11,3,15,0.02
2013-12-9,43.6,42.8,41.5,41.0,39.5,37.0,90,88,84,30.41,30.14,10,3,15,0.06
2013-12-10,47.2,44.4,42.7,45.0,42.3,40.0,95,91,88,30.59,30.41,4,0,6,0.00
2013-12-11,43.9,41.7,38.5,41.0,39.5,37.0,95,92,90,30.59,30.52,2,0,6,0.00
2013-12-12,38.4,34.9,32.7,37.0,33.8,32.0,96,96,95,30.54,30.39,3,0,4,0.01
2013-12-13,32.9,31.7,30.6,32.0,30.8,30.0,97,96,96,30.39,30.28,4,0,4,0.01
2013-12-14,37.8,33.9,30.1,36.0,32.4,29.0,97,94,89,30.43,30.28,7,1,8,0.01
2013-12-15,42.0,38.7,36.3,36.0,34.3,32.0,95,84,74,30.47,30.41,6,2,13,0.01
2013-12-16,47.4,35.1,28.1,36.0,30.7,26.0,95,84,59,30.48,30.43,3,0,4,0.01
2013-12-17,38.5,29.8,25.0,31.0,27.2,24.0,95,90,75,30.44,30.38,2,0,5,0.00
2013-12-18,30.6,28.5,26.7,28.0,26.6,25.0,95,92,88,30.38,30.15,2,0,4,0.00
2013-12-19,31.6,29.7,27.3,28.0,26.6,25.0,93,88,83,30.14,29.99,3,0,6,0.00
2013-12-20,36.9,33.5,30.7,35.0,30.5,28.0,93,89,81,30.48,30.09,3,0,9,0.01
2013-12-21,41.7,34.6,29.3,34.0,31.3,28.0,94,88,72,30.53,30.33,4,0,7,0.00
2013-12-22,47.4,40.9,32.1,44.0,36.5,30.0,93,84,76,30.32,30.10,6,1,11,0.02
2013-12-23,50.6,46.0,37.3,42.0,40.1,35.0,91,80,69,30.14,29.94,9,2,12,0.00
2013-12-24,43.9,35.5,29.4,37.0,32.7,28.0,95,90,77,29.93,29.61,3,0,6,0.00
2013-12-25,42.9,35.8,30.2,40.0,34.2,29.0,96,94,88,29.60,29.36,2,0,3,0.00
2013-12-26,53.3,39.9,33.6,45.0,37.4,33.0,96,91,72,29.58,29.29,5,0,6,0.01
2013-12-27,47.4,41.9,33.3,40.0,38.2,31.0,94,87,71,29.82,29.58,6,1,7,0.01
2013-12-28,40.9,34.6,29.0,38.0,33.0,28.0,96,94,88,29.79,29.72,1,0,4,0.00
2013-12-29,45.4,39.3,33.5,38.0,35.5,31.0,96,86,71,30.27,29.77,8,1,11,0.01
2013-12-30,40.8,32.5,25.1,35.0,29.8,24.0,95,90,75,30.40,30.27,4,0,6,0.00
2013-12-31,34.4,28.1,22.0,33.0,26.7,21.0,95,94,93,30.32,30.07,0,0,3,0.00
2014-1-1,39.0,35.3,30.7,34.0,32.8,29.0,95,90,81,30.07,29.92,3,0,5,0.00
2014-1-2,38.8,34.4,29.2,35.0,32.2,27.0,95,91,84,29.92,29.81,2,0,5,0.02